COSMOS 1275 DEB, 39967

Orbit data source: Space-Track

COSMOS 1275 DEB, 39967 is space debris in LEO originally from a launch on Thu, 04 Jun 1981 UTC launched from the Plesetsk Missile And Space Complex (PKMTR). Debris objects in space refer to the collection of defunct objects orbiting the Earth. Examples of debris include non-operational satellites, rocket bodies, and fragments generated from explosions, collisions, or faulty payload assembly.

Loading next visibility...
Identifier
39967, 1981-053PD
Orbit
LEO
Country
Flag of CISCIS
Related business
Manufacturer
Unknown
Mission
Spacecraft
Bus & Motor
Unknown
Mass
Unknown
Launch date (UTC)
1981-06-04 (45 years ago)
Launch vehicle
Unknown
Launch site
Plesetsk Missile And Space Complex (PKMTR)
Object type
Payload
Rocket body
Debris
Shape & HBR
Unknown shape, 0.1 m
Radar Cross Section
Small (<0.1 m²)

Expand to show TLE details & history
Last TLE update: 1 day ago

TLE from 1 day ago
0 COSMOS 1275 DEB
1 39967U 81053PD  26036.22921711  .00001652  00000-0  11580-2 0  9994
2 39967  82.9243 128.3719 0032798 189.9614 170.0909 13.97527014593015
Epoch: 2026-02-05T05:30Z
TLE epoch observation values (Epoch: 2026-02-05T05:30:04.358Z)
Latitude
0.00001°
Longitude
-89.5307°
Altitude
928.831 km
Speed
7.375 km/s
True Right ascension
08h 33m 29s
True Declination
0° 00' 00"
Sunlit
Object was in full shadow at epoch
Visualization orbit readout
Latitude
Unknown
Longitude
Unknown
Altitude
Unknown
Speed
Unknown
Apparent Right ascension
Unknown
Apparent Declination
Unknown
Sunlit
N/A
Visualization observer readout
Local Sidereal Time
18:02:45
Azimuth
Unknown
Elevation
Unknown
Doppler factor
Unknown
Orbital elements
Apogee altitude
923.359 km
Perigee altitude
875.62 km
Semi-major axis
7,277.627 km
Eccentricity
0.00328
Inclination
82.9243°
RAAN
128.3719°
Arg. of periapsis
189.9614°
True anomaly
170.15532°
Mean anomaly
170.0909°
Eccentric anomaly
170.12313°
Mean motion
3.4959 °/min
Orbital period
102.98 mins
BSTAR
0.001158
Loading maneuver chart data...
Computing Atmospheric mass density...
Loading historical data...
Loading historical data...
Loading historical data...
Loading historical data...
Loading historical data...
Loading historical data...
Loading historical data...

Documentation

Showing up to 5 results
|